Tracking 29088 objects as of 14-Jul-2024
HD Live streaming from Space Station
objects crossing your sky now

COSMOS 1275 DEB

Track COSMOS 1275 DEB now!
10-day predictions


NORAD ID: 13473
Int'l Code: 1981-053FV
Perigee: 806.0 km
Apogee: 872.3 km
Inclination: 82.8 °
Period: 101.5 minutes
Semi major axis: 7210 km
RCS: 0.033 m2 (small)
Launch date: June 4, 1981
Source: Commonwealth of Independent States (former USSR) (CIS)
Launch site: PLESETSK MISSILE AND SPACE COMPLEX (PKMTR)

Note: This is SATELLITE DEBRIS
Your satellite tracking list
Your tracking list is empty




NASA's NSSDC Master Catalog

Two Line Element Set (TLE):
1 13473U 81053FV  24195.96111297  .00006649  00000-0  32039-2 0  9996
2 13473  82.8357 186.2301 0045928   6.5997  57.1215 14.18029448147833
Source of the keplerian elements: AFSPC